TimeCDT,TemperatureF,Dew PointF,Humidity,Sea Level PressureIn,VisibilityMPH,Wind Direction,Wind SpeedMPH,Gust SpeedMPH,PrecipitationIn,Events,Conditions,WindDirDegrees,DateUTC
12:58 AM,72.5,67.8,85,30.02,10.0,ESE,4.6,-,N/A,,Mostly Cloudy,110,2013-07-26 05:58:00
1:58 AM,72.5,66.7,82,30.00,10.0,South,5.8,-,N/A,,Overcast,180,2013-07-26 06:58:00
2:58 AM,72.1,66.9,84,30.00,10.0,SSW,2.3,-,N/A,,Overcast,200,2013-07-26 07:58:00
3:58 AM,71.8,66.6,84,29.98,10.0,SSE,5.8,-,N/A,,Mostly Cloudy,160,2013-07-26 08:58:00
4:58 AM,71.8,66.2,83,29.98,10.0,South,5.8,-,N/A,,Overcast,170,2013-07-26 09:58:00
5:52 AM,71.6,66.2,83,29.99,10.0,South,4.6,-,N/A,Rain,Light Rain,170,2013-07-26 10:52:00
5:58 AM,71.2,66.7,86,29.99,6.0,South,3.5,-,0.00,Rain,Light Rain Showers,170,2013-07-26 10:58:00
6:48 AM,69.8,69.8,100,30.03,4.0,WNW,4.6,-,N/A,Rain,Rain,290,2013-07-26 11:48:00
6:53 AM,69.8,69.8,100,30.03,4.0,WNW,5.8,-,N/A,Rain,Rain,290,2013-07-26 11:53:00
6:58 AM,69.4,69.4,100,30.03,4.0,West,5.8,-,0.00,Rain,Rain,280,2013-07-26 11:58:00
7:13 AM,69.8,69.8,100,30.03,5.0,NW,8.1,-,N/A,Rain,Heavy Rain,320,2013-07-26 12:13:00
7:18 AM,69.8,69.8,100,30.03,1.8,North,5.8,-,N/A,Rain,Heavy Rain,350,2013-07-26 12:18:00
7:23 AM,69.8,69.8,100,30.03,5.0,North,6.9,-,N/A,Rain,Light Rain,360,2013-07-26 12:23:00
7:46 AM,68.0,68.0,100,30.02,10.0,NNE,8.1,-,N/A,Rain,Light Rain,20,2013-07-26 12:46:00
7:58 AM,68.7,68.7,100,30.02,10.0,NNE,5.8,-,0.00,,Overcast,20,2013-07-26 12:58:00
8:58 AM,68.9,68.9,100,30.02,10.0,East,3.5,-,N/A,,Overcast,100,2013-07-26 13:58:00
9:58 AM,70.9,70.9,100,30.03,10.0,SE,4.6,-,N/A,,Overcast,140,2013-07-26 14:58:00
10:58 AM,71.8,71.8,100,30.04,10.0,SSW,10.4,-,N/A,,Overcast,200,2013-07-26 15:58:00
11:53 AM,73.4,73.4,100,30.05,5.0,SW,6.9,-,N/A,Rain,Light Rain Showers,220,2013-07-26 16:53:00
11:58 AM,72.9,72.9,100,30.04,7.0,SW,6.9,-,0.00,Rain,Light Rain,230,2013-07-26 16:58:00
12:32 PM,71.6,71.6,100,30.05,5.0,SW,6.9,-,N/A,Rain,Light Rain Showers,220,2013-07-26 17:32:00
12:58 PM,71.6,71.6,100,30.04,8.0,SW,4.6,-,0.00,,Overcast,220,2013-07-26 17:58:00
1:10 PM,71.6,71.6,100,30.05,5.0,SW,6.9,-,N/A,Rain,Light Rain Showers,230,2013-07-26 18:10:00
1:17 PM,71.6,71.6,100,30.05,5.0,SW,4.6,-,N/A,Rain,Light Rain Showers,220,2013-07-26 18:17:00
1:46 PM,71.6,71.6,100,30.04,10.0,SW,5.8,-,N/A,,Overcast,220,2013-07-26 18:46:00
1:58 PM,72.3,72.3,100,30.04,10.0,SW,4.6,-,0.00,,Overcast,220,2013-07-26 18:58:00
2:28 PM,73.4,73.4,100,30.03,10.0,SSW,6.9,-,N/A,,Overcast,210,2013-07-26 19:28:00
2:51 PM,75.2,75.2,100,30.02,10.0,SSW,9.2,-,N/A,,Mostly Cloudy,200,2013-07-26 19:51:00
2:58 PM,75.6,74.7,97,30.01,10.0,SSW,10.4,-,N/A,,Mostly Cloudy,200,2013-07-26 19:58:00
3:58 PM,77.5,72.7,85,30.00,10.0,Variable,3.5,-,N/A,,Scattered Clouds,0,2013-07-26 20:58:00
4:58 PM,79.0,72.1,79,29.99,10.0,SSE,8.1,-,N/A,,Scattered Clouds,150,2013-07-26 21:58:00
5:58 PM,80.8,71.8,74,29.99,10.0,SSW,6.9,-,N/A,,Partly Cloudy,210,2013-07-26 22:58:00
6:58 PM,79.5,72.3,79,29.98,10.0,SSW,9.2,-,N/A,,Partly Cloudy,200,2013-07-26 23:58:00
7:58 PM,76.3,72.9,89,29.99,10.0,SSW,8.1,-,N/A,,Clear,200,2013-07-27 00:58:00
8:58 PM,72.1,72.1,100,29.99,10.0,SSW,6.9,-,N/A,,Clear,210,2013-07-27 01:58:00
9:58 PM,72.7,72.3,99,30.00,10.0,NW,8.1,-,N/A,,Partly Cloudy,320,2013-07-27 02:58:00
10:58 PM,68.0,59.4,74,30.01,10.0,North,4.6,-,N/A,,Clear,350,2013-07-27 03:58:00
11:58 PM,68.0,58.6,72,30.04,10.0,North,11.5,-,N/A,,Partly Cloudy,360,2013-07-27 04:58:00